GW5289 Weather Reports


Display with metric or nautical units.
time (UTC)temp
F
wind
direction
speed
MPH
gust
MPH
rain 1hr
in
rain 24hr
in
rain mn
in
humidity
%
barometer
mb
20260505083025 62 239 2.0 8.0 0.00 0.00 0.00 67 1014.3
20260505081510 62 234 3.0 9.0 0.00 0.00 0.00 67 1014.3
20260505080025 62 295 3.0 12.0 0.00 0.00 0.00 67 1014.2
20260505074521 62 300 3.0 10.0 0.00 0.00 0.00 68 1014.1
20260505073026 62 260 2.0 7.0 0.00 0.00 0.00 68 1014.0
20260505071508 62 196 1.0 7.0 0.00 0.00 0.00 68 1014.0
20260505070022 62 276 2.0 6.0 0.00 0.00 0.00 67 1013.9
20260505064522 63 232 2.0 13.0 0.00 0.00 0.00 66 1013.8
20260505063026 63 43 2.0 9.0 0.00 0.00 0.00 66 1013.8
20260505061524 64 265 2.0 9.0 0.00 0.00 0.00 65 1013.9
20260505060012 64 228 3.0 12.0 0.00 0.00 0.00 65 1013.9
20260505054522 64 274 4.0 11.0 0.00 0.00 0.00 65 1013.9
20260505053005 64 302 3.0 10.0 0.00 0.00 0.00 64 1014.0
20260505051507 64 200 3.0 10.0 0.00 0.00 0.00 64 1014.0
20260505041503 64 258 3.0 9.0 0.00 0.00 0.00 64 1013.8
20260505040018 65 1 2.0 10.0 0.00 0.00 0.00 63 1013.6
20260505034527 65 217 2.0 9.0 0.00 0.00 0.00 62 1013.5
20260505033020 65 239 1.0 6.0 0.00 0.00 0.00 60 1013.5
20260505031503 66 234 4.0 10.0 0.00 0.00 0.00 57 1013.5
20260505030014 66 180 2.0 11.0 0.00 0.00 0.00 55 1013.4
20260505024514 66 249 1.0 2.0 0.00 0.00 0.00 51 1013.3
20260505023014 66 228 0.0 2.0 0.00 0.00 0.00 49 1013.3
20260505021524 67 225 1.0 4.0 0.00 0.00 0.00 48 1013.1
20260505020012 67 229 1.0 3.0 0.00 0.00 0.00 48 1013.1
20260505014515 67 186 0.0 2.0 0.00 0.00 0.00 48 1012.9
20260505013017 66 256 0.0 3.0 0.00 0.00 0.00 50 1012.8
20260505011521 65 176 0.0 2.0 0.00 0.00 0.00 54 1012.8
20260505010027 67 224 0.0 2.0 0.00 0.00 0.00 50 1012.9
20260505004515 68 223 0.0 2.0 0.00 0.00 0.00 48 1012.7
20260505003017 69 238 0.0 2.0 0.00 0.00 0.00 46 1012.6
20260505001518 70 245 0.0 2.0 0.00 0.00 0.00 45 1012.4
20260505000038 71 227 0.0 2.0 0.00 0.00 0.00 43 1012.2
20260504234505 72 215 0.0 3.0 0.00 0.00 0.00 41 1012.3
20260504233002 74 231 1.0 4.0 0.00 0.00 0.00 38 1012.2
20260504231502 75 192 2.0 5.0 0.00 0.00 0.00 36 1012.1
20260504230002 76 235 1.0 6.0 0.00 0.00 0.00 36 1012.0
20260504224502 76 268 1.0 5.0 0.00 0.00 0.00 35 1011.8
20260504223004 77 207 1.0 8.0 0.00 0.00 0.00 34 1011.9
20260504221503 78 240 2.0 11.0 0.00 0.00 0.00 33 1011.9
20260504220009 77 16 1.0 9.0 0.00 0.00 0.00 33 1011.9
20260504214504 78 273 2.0 7.0 0.00 0.00 0.00 32 1011.9
20260504213005 79 280 1.0 11.0 0.00 0.00 0.00 33 1012.0
20260504211505 78 290 4.0 12.0 0.00 0.00 0.00 31 1011.9
20260504210004 79 270 3.0 9.0 0.00 0.00 0.00 31 1012.0
20260504204503 80 177 2.0 7.0 0.00 0.00 0.00 31 1012.0
20260504203003 80 127 1.0 8.0 0.00 0.00 0.00 31 1012.0
20260504201503 79 1 2.0 8.0 0.00 0.00 0.00 30 1012.1
20260504200005 78 237 2.0 9.0 0.00 0.00 0.00 30 1012.3
20260504194503 78 236 2.0 8.0 0.00 0.00 0.00 29 1012.5
20260504193008 77 289 3.0 9.0 0.00 0.00 0.00 31 1013.1
20260504191503 76 251 3.0 10.0 0.00 0.00 0.00 28 1013.3
20260504190006 76 252 4.0 10.0 0.00 0.00 0.00 27 1013.4
20260504184506 77 245 4.0 7.0 0.00 0.00 0.00 30 1013.6
20260504183010 76 260 2.0 7.0 0.00 0.00 0.00 32 1013.7
20260504181503 74 360 2.0 7.0 0.00 0.00 0.00 30 1014.0
20260504180011 74 257 2.0 6.0 0.00 0.00 0.00 33 1014.2
20260504174505 75 224 0.0 7.0 0.00 0.00 0.00 31 1014.2
20260504173010 76 311 2.0 6.0 0.00 0.00 0.00 29 1014.4
20260504171507 74 337 2.0 6.0 0.00 0.00 0.00 32 1014.5